Location: Edoum�
(0.9447°N, 10.6482°E)
Time: 00:56:23
(UTC+00:00)

Ariane 3 Deb - Pass Details

Date: 07 June 2020
Orbit: 220 x 18548 km, 6.9° (Epoch: 13 July)

Event Time Altitude Azimuth Distance (km) Brightness Sun altitude
Exits shadow 02:27:32 53° 137° (SE) 1,762 4.7 -37.8°
Drops below altitude 10° 02:47:34 10° 100° (E) 9,150 9.0 -33.4°
Sets 03:07:34 0° 97° (E) 14,562 10.3 -29.0°
